Preview of NWS' New Version of Forecast
This preview is not operational and should not be used for support decisions.

Regional Weather Roundup (RWR)

Issued by National Weather Service (NWS)

                            
000
ASUS42 KTBW 180416
RWRFL 
FLORIDA REGIONAL WEATHER ROUNDUP
NATIONAL WEATHER SERVICE TAMPA BAY RUSKIN FL
1200 AM EDT THU APR 18 2019

NOTE: "FAIR" INDICATES FEW OR NO CLOUDS BELOW 12,000 FEET WITH NO
SIGNIFICANT WEATHER AND/OR OBSTRUCTIONS TO VISIBILITY.

FLZ001>010-012>015-112-114-115-180500-
PANHANDLE FLORIDA
  
CITY           SKY/WX    TMP DP  RH WIND       PRES   REMARKS
PENSACOLA      CLOUDY    70  70 100 SE15      30.01F                  
PENSACOLA NAS  MOCLDY    70  69  97 SE10      30.00F                  
MILTON NAS     CLOUDY    67  67 100 SE6       30.02                   
CRESTVIEW      FAIR      65  63  93 CALM      30.04F                  
DUKE FIELD     FAIR      66  66 100 CALM      30.02F                  
VALPARAISO     FAIR      69  68  94 SE9       30.01F                  
MARY ESTHER    PTCLDY    69  66  90 SE7       30.00                   
PANAMA CITY    FAIR      61  59  93 CALM      30.03S                  
TYNDALL AFB    FAIR      64  62  93 E3        30.03F                  
APALACHICOLA   FAIR      61  58  90 CALM      30.04S                  

STATION/POSITION SKY/WX   TEMP    WIND        PRES    WAVE   SWELL
                          AIR SEA DIR/SP/G            HT/PER HT/PER
                          (F)     (DEG/KT/KT) (MB)    (FT/S) (FT/S)
30.1N   87.6W                                 1016.1
29.2N   88.2W                     110/ 14/ 17 1015.4F   2/ 4
PANAMA CITY BEAC           70 72  130/  5/  7 1017.2F
TOWER C          NOT AVBL

$$
FLZ011-016>038-118-127-128-134-139-239-180500-
NORTH FLORIDA
  
CITY           SKY/WX    TMP DP  RH WIND       PRES   REMARKS
MARIANNA       FAIR      67  62  84 CALM      30.03F                  
TALLAHASSEE    FAIR      61  57  87 NW3       30.05S                  
PERRY          FAIR      64  61  90 E5        30.06F                  
LIVE OAK       CLOUDY    66  64  94 E3        30.07S                  
CROSS CITY     FAIR      63  60  92 CALM      30.06F                  
LAKE CITY      FAIR      64  61  88 E3        30.08S                  
GAINESVILLE    FAIR      69  63  81 E3        30.10F                  
PALATKA        CLOUDY    68  64  88 SE7       30.09S                  
MAYPORT NAS    MOCLDY    71  67  87 E7        30.09F                  
JACKSONVILLE   MOCLDY    66  63  90 E7        30.08F                  
JAX NAS        MOCLDY    72  65  78 E8        30.09F                  
JAX CECIL      FAIR      64  63  94 CALM      30.08F                  
FERNANDINA BEA FAIR      69  66  89 E8        30.09F                  
ST AUGUSTINE   FAIR      70  66  87 SE3       30.10F                  
PALM COAST     FAIR      64  62  91 CALM      30.09F                  

STATION/POSITION SKY/WX   TEMP    WIND        PRES    WAVE   SWELL
                          AIR SEA DIR/SP/G            HT/PER HT/PER
                          (F)     (DEG/KT/KT) (MB)    (FT/S) (FT/S)
SHELL POINT                69 71   10/  1/  2 1017.1
KEATON BEACH               66      60/  4/  4 1017.7F
CEDAR KEY                  71      50/  5/  6 1017.7F
FERNANDINA                 72 69  100/  3/  5 1019.7F
30.7N   81.3W                 68                N/A     2/10
MAYPORT                    71 69   90/  6/  8 1019.1F
31.4N   80.9W              68 67  110/  6/  6 1019.5F   2/ 8   2/ 8
ST AUGUSTINE               72 71  130/  8/  9 1019.0F

$$
FLZ040-043>046-052-053-057-058-063-144-180500-
INTERIOR CENTRAL FLORIDA
  
CITY           SKY/WX    TMP DP  RH WIND       PRES   REMARKS
OCALA          FAIR      70  61  73 E6        30.08F                  
LEESBURG       FAIR      71  61  70 E8        30.09S                  
SANFORD        FAIR      68  63  84 SE3       30.09S                  
ORLANDO EXEC   FAIR      68  61  78 SE8       30.08F                  
ORLANDO INTL   MOCLDY    69  62  78 E7        30.08F                  
KISSIMMEE      FAIR      71  62  73 SE8       30.09F                  
WINTER HAVEN   FAIR      71  63  75 E8        30.08F                  
LAKELAND       FAIR      70  61  73 E6        30.08S                  
BARTOW         FAIR      68  63  83 E9        30.06F                  
SEBRING        FAIR      66  61  84 E8        30.07F                  
OKEECHOBEE     FAIR      63  59  88 CALM      30.06F                  

$$
FLZ041-047-054-059-064-141-147-180500-
EAST CENTRAL FLORIDA
  
CITY           SKY/WX    TMP DP  RH WIND       PRES   REMARKS
DAYTONA BEACH  MOCLDY    68  65  90 CALM      30.09F                  
DELAND         FAIR      66  61  82 CALM      30.09S                  
JFK SPACE CTR  FAIR      71  62  72 SE6       30.08S                  
CAPE CANAVERAL FAIR      72  58  60 SE10      30.07F                  
PATRICK AFB    FAIR      74  63  66 E8        30.07F                  
MELBOURNE      FAIR      75  62  64 E8        30.07F                  
VERO BEACH     FAIR      73  61  65 SE10      30.07S                  
FT PIERCE      FAIR      73  60  63 SE9       30.07S                  
STUART         FAIR      73  61  64 E8        30.07F                  

STATION/POSITION SKY/WX   TEMP    WIND        PRES    WAVE   SWELL
                          AIR SEA DIR/SP/G            HT/PER HT/PER
                          (F)     (DEG/KT/KT) (MB)    (FT/S) (FT/S)
28.5N   80.2W              76     120/ 12/ 16 1019.3R   4/ 8   3/ 8
28.9N   78.5W              74 77  110/ 14/ 17 1019.9R   4/ 8   2/ 8
TRIDENT PIER               73 78   90/  7/ 11 1020.0F
28.4N   80.5W                 77                N/A     3/ 4
27.5N   80.2W                 76                N/A     4/ 9

$$
FLZ050-056-061-142-242-148-248-149-249-151-251-155-255-
160-260-180500-
WEST CENTRAL FLORIDA
  
CITY           SKY/WX    TMP DP  RH WIND       PRES   REMARKS
CRYSTAL RIVER  FAIR      64  61  88 CALM      30.06F                  
INVERNESS      FAIR      68  63  83 CALM      30.07F                  
BROOKSVILLE    FAIR      68  59  73 SE6       30.07S                  
CLEARWATER AIR FAIR      72  59  64 E8        30.05F                  
ST PETE CLEARW FAIR      73  61  65 E13       30.05S                  
TAMPA INTL     FAIR      74  60  61 E8        30.06S                  
TAMPA EXEC     FAIR      70  61  73 E3        30.07S                  
PLANT CITY     MOCLDY    72  63  73 E6        30.08F                  
MACDILL AFB    FAIR      72  60  67 E9        30.05S                  
PETER O KNIGHT CLOUDY    72  63  73 E8        30.06S                  
ST PETERSBURG  FAIR      75  62  64 SE20      30.04S                  
SARASOTA       FAIR      70  61  73 E6        30.03S                  
VENICE         FAIR      72  63  73 E9        30.04F                  

STATION/POSITION SKY/WX   TEMP    WIND        PRES    WAVE   SWELL
                          AIR SEA DIR/SP/G            HT/PER HT/PER
                          (F)     (DEG/KT/KT) (MB)    (FT/S) (FT/S)
27.3N   84.2W                 75                N/A     2/ 5
CLEARWATER BEACH           75 78   80/  9/ 15 1017.7S
MIDDLE TAMPA BAY           73     120/ 13/ 14 1017.6S
VENICE                     72 78   80/  7/  8 1017.0F

$$
FLZ066-069-070-075>078-162-262-165-265-180500-
SOUTHWEST FLORIDA AND KEYS
  
CITY           SKY/WX    TMP DP  RH WIND       PRES   REMARKS
PUNTA GORDA    FAIR      66  61  84 E7        30.06S                  
FT MYERS       FAIR      70  61  73 SE8       30.04S                  
SOUTHWEST INTL FAIR      69  60  73 SE5       30.04F                  
NAPLES         FAIR      73  65  75 SE8       30.04S                  
MARCO ISLAND   FAIR      72  63  73 E7        30.05F                  
IMMOKALEE      CLOUDY    66  59  77 CALM      30.03F                  
MARATHON       MOCLDY    80  68  66 E10       30.03S                  
KEY WEST NAS   FAIR      77  67  71 E14       30.03S                  
KEY WEST INTL  FAIR      77  67  71 E13       30.03F                  

STATION/POSITION SKY/WX   TEMP    WIND        PRES    WAVE   SWELL
                          AIR SEA DIR/SP/G            HT/PER HT/PER
                          (F)     (DEG/KT/KT) (MB)    (FT/S) (FT/S)
NAPLES                     75 81  120/  5/ 10 1017.2F
DRY TORTUGAS               77     120/ 15/ 17 1016.4F
SAND KEY                   77                 1016.5F
SOMBRERO KEY               77                 1016.2F

$$
FLZ067-068-071>074-168-172>174-180500-
SOUTHEAST FLORIDA 
  
CITY           SKY/WX    TMP DP  RH WIND       PRES   REMARKS
W PALM BEACH   MOCLDY    75  61  61 SE9       30.06F                  
FT LAUDER-EXEC FAIR      76  62  62 E10       30.05F                  
FT LAUDERDALE  FAIR      76  64  66 E12       30.05S                  
POMPANO BEACH  MOCLDY    77  61  57 E8        30.05F                  
PEMBROKE PINES FAIR      73  62  68 E5        30.07S                  
OPA LOCKA      FAIR      73  64  73 E6        30.06F                  
MIAMI          FAIR      75  66  73 E7        30.05F                  
WEST KENDALL   FAIR      74  65  73 E5        30.05F                  
HOMESTEAD      FAIR      75  67  76 E7        30.04F                  

STATION/POSITION SKY/WX   TEMP    WIND        PRES    WAVE   SWELL
                          AIR SEA DIR/SP/G            HT/PER HT/PER
                          (F)     (DEG/KT/KT) (MB)    (FT/S) (FT/S)
PORT EVERGLADES            77      90/  7/ 11 1017.8F
VIRGINIA KEY               78 81   80/  8/ 13 1017.0F
LAKE WORTH                 76 79  130/ 14/ 16 1018.9F
SETTLEMENT POINT           75     100/ 11/ 12 1018.6F

$$